Regional Weather Roundup
Issued by NWS Goodland, KS

Home | Current Version | Previous Version | Graphics & Text | Print | Product List | Glossary On
Versions: 1 2 3 4 5 6 7 8 9 10 11 12 13 14 15 16 17 18 19 20 21 22 23 24 25 26 27 28 29 30 31 32 33 34 35 36 37 38 39 40 41 42 43 44 45 46 47 48 49 50
000
ASUS43 KGLD 041659
RWRGLD

GOODLAND FORECAST AREA HOURLY WEATHER ROUNDUP
NATIONAL WEATHER SERVICE GOODLAND KS
1000 AM MST SUN DEC 04 2016

...OFFICIAL OBSERVATIONS...

CITY           SKY/WX    TMP DP  RH WIND       PRES   REMARKS
GOODLAND KS    SUNNY     43  13  29 W13       30.05F
HILL CITY KS   SUNNY     41  27  57 NW8       30.07R
IMPERIAL NEB   SUNNY     44  16  32 NW22G33   30.01F
MCCOOK NEB     SUNNY     37  22  54 W9        30.04F
AKRON CO       SUNNY     37  12  35 SW13      30.01F
BURLINGTON CO  SUNNY     41  12  30 SW7       30.06F
LIMON CO       SUNNY     38  10  31 S15       30.03F
$$

...UNOFFICIAL OBSERVATIONS...

CITY           SKY/WX    TMP DP  RH WIND       PRES   REMARKS
COLBY KS       SUNNY     43  21  42 NW14G21   30.07F
LENORA KS        N/A     39  32  76 MISG        N/A
NORTON KS      SUNNY     39  21  48 NW15      30.03F
SHARON SPRINGS   N/A     43  18  36 NW14        N/A
TRENTON NEB      N/A     40  32  73 NW12        N/A
KIT CARSON CO    N/A     34  19  54 MISG        N/A
YUMA CO        FAIR      37  12  35 W10       30.03S
$$




USA.gov is the U.S. government's official web portal to all federal, state and local government web resources and services.